FW6537 Weather Reports


time (UTC)temp
F
wind
direction
speed
knots
gust
knots
rain 1hr
in
rain 24hr
in
rain mn
in
humidity
%
barometer
mb
20260504070127 53 82 1.7 5.2 0.00 0.00 0.00 53 1007.7
20260504060147 54 98 1.7 7.0 0.00 0.00 0.00 52 1007.8
20260504050142 52 90 0.0 0.9 0.00 0.00 0.00 60 1008.0
20260504044638 51 96 0.0 0.9 0.00 0.00 0.00 65 1008.1
20260504043131 51 96 0.0 0.9 0.00 0.00 0.00 67 1008.1
20260504041626 51 96 0.0 0.0 0.00 0.00 0.00 67 1008.2
20260504040142 51 96 0.0 0.0 0.00 0.00 0.00 66 1008.3
20260504034639 51 96 0.0 0.9 0.00 0.00 0.00 68 1008.5
20260504033133 51 97 0.0 0.0 0.00 0.00 0.00 68 1008.6
20260504030135 51 97 0.0 0.0 0.00 0.00 0.00 68 1008.6
20260504024631 52 70 0.0 1.7 0.00 0.00 0.00 67 1008.8
20260504023128 52 91 0.0 2.6 0.00 0.00 0.00 68 1009.1
20260504021628 52 91 0.0 7.0 0.00 0.00 0.00 70 1009.4
20260504020128 52 94 3.5 8.7 0.00 0.00 0.00 68 1009.5
20260504014641 54 101 0.0 7.0 0.00 0.00 0.00 60 1009.7
20260504013132 55 107 1.7 10.4 0.00 0.00 0.00 54 1009.2
20260504011626 56 69 3.5 13.9 0.00 0.00 0.00 52 1009.0
20260504010150 56 76 4.3 13.9 0.00 0.00 0.00 49 1008.9
20260504004638 56 342 2.6 9.6 0.00 0.00 0.00 49 1008.6
20260504003137 54 83 1.7 4.3 0.00 0.00 0.00 51 1008.5
20260504001637 54 80 0.0 2.6 0.00 0.00 0.00 53 1008.3
20260504000130 55 77 0.0 0.9 0.00 0.00 0.00 51 1008.2
20260503234627 55 96 1.7 6.1 0.00 0.00 0.00 50 1008.7
20260503233124 55 51 1.7 7.0 0.00 0.00 0.00 48 1008.7
20260503231640 56 98 2.6 10.4 0.00 0.00 0.00 45 1008.6
20260503230138 56 115 0.0 4.3 0.00 0.00 0.00 46 1008.6
20260503224634 56 128 1.7 7.0 0.00 0.00 0.00 45 1008.5
20260503223148 57 110 0.9 5.2 0.00 0.00 0.00 45 1008.4
20260503221639 57 326 1.7 6.1 0.00 0.00 0.00 44 1008.4
20260503220135 56 82 2.6 7.8 0.00 0.00 0.00 44 1008.6
20260503214630 57 136 1.7 6.1 0.00 0.00 0.00 44 1008.5
20260503213123 56 82 1.7 7.0 0.00 0.00 0.00 47 1008.5
20260503211639 56 90 0.9 5.2 0.00 0.00 0.00 48 1008.5
20260503210136 57 60 1.7 4.3 0.00 0.00 0.00 45 1008.6
20260503204636 56 109 0.9 7.8 0.00 0.00 0.00 47 1008.7
20260503203128 56 91 1.7 12.2 0.00 0.00 0.00 45 1008.8
20260503201637 55 105 0.9 8.7 0.00 0.00 0.00 48 1008.9
20260503200155 55 66 2.6 6.1 0.00 0.00 0.00 45 1009.1
20260503194631 55 142 3.5 8.7 0.00 0.00 0.00 44 1009.1
20260503193144 55 91 2.6 7.0 0.00 0.00 0.00 43 1009.2
20260503191639 56 75 2.6 10.4 0.00 0.00 0.00 42 1009.4
20260503190133 56 57 3.5 11.3 0.00 0.00 0.00 41 1009.4
20260503184630 56 98 1.7 5.2 0.00 0.00 0.00 40 1009.7
20260503183125 56 127 3.5 8.7 0.00 0.00 0.00 40 1009.9
20260503181636 55 196 2.6 6.1 0.00 0.00 0.00 39 1010.1
20260503180146 53 77 2.6 9.6 0.00 0.00 0.00 40 1010.2
20260503174638 53 98 0.9 8.7 0.00 0.00 0.00 38 1010.5
20260503173152 54 115 3.5 7.0 0.00 0.00 0.00 39 1010.6
20260503171640 52 72 2.6 7.0 0.00 0.00 0.00 40 1010.7
20260503170136 53 93 2.6 7.8 0.00 0.00 0.00 38 1011.0
20260503160127 52 179 1.7 6.1 0.00 0.00 0.00 44 1011.8
20260503140129 47 84 3.5 9.6 0.00 0.00 0.00 55 1012.6
20260503130207 44 117 1.7 7.0 0.00 0.00 0.00 69 1012.9
20260503120128 41 122 0.9 7.0 0.00 0.00 0.00 73 1012.6
20260503110125 39 100 0.9 4.3 0.00 0.00 0.00 80 1012.2
20260503100133 39 105 0.0 0.9 0.00 0.00 0.00 80 1012.0
20260503090126 40 94 0.9 1.7 0.00 0.00 0.00 79 1012.1
20260503080126 40 95 0.0 1.7 0.00 0.00 0.00 78 1012.0